COSMOS 252 DEB, 18556

Orbit data source: Space-Track

COSMOS 252 DEB, 18556 is space debris in LEO originally from a launch on Fri, 01 Nov 1968 UTC launched from the Tyuratam Missile And Space Complex (TTMTR). Debris objects in space refer to the collection of defunct objects orbiting the Earth. Examples of debris include non-operational satellites, rocket bodies, and fragments generated from explosions, collisions, or faulty payload assembly.

Loading next visibility...
Identifier
18556, 1968-097EP
Orbit
LEO
Country
Flag of CISCIS
Related business
Manufacturer
Unknown
Mission
Spacecraft
Bus & Motor
Unknown
Mass
Unknown
Launch date (UTC)
1968-11-01 (58 years ago)
Launch vehicle
Unknown
Launch site
Tyuratam Missile And Space Complex (TTMTR)
Object type
Payload
Rocket body
Debris
Shape & HBR
Unknown shape, 0.1 m
Radar Cross Section
Small (<0.1 m²)

Expand to show TLE details & history
Last TLE update: 2 days ago

TLE from 2 days ago
0 COSMOS 252 DEB
1 18556U 68097EP  26137.43376492  .00001510  00000-0  83467-3 0  9990
2 18556  62.1950  39.7901 0396035 253.3762 102.3445 13.81552943493560
Epoch: 2026-05-17T10:24Z
TLE epoch observation values (Epoch: 2026-05-17T10:24:37.289Z)
Latitude
0.00003°
Longitude
8.49831°
Altitude
1,033.029 km
Speed
7.299 km/s
True Right ascension
02h 39m 09s
True Declination
0° 00' 00"
Sunlit
Object was in daylight at epoch
Visualization orbit readout
Latitude
Unknown
Longitude
Unknown
Altitude
Unknown
Speed
Unknown
Apparent Right ascension
Unknown
Apparent Declination
Unknown
Sunlit
N/A
Visualization observer readout
Local Sidereal Time
09:23:25
Azimuth
Unknown
Elevation
Unknown
Doppler factor
Unknown
Orbital elements
Apogee altitude
1,247.854 km
Perigee altitude
666.833 km
Semi-major axis
7,335.481 km
Eccentricity
0.0396
Inclination
62.195°
RAAN
39.7901°
Arg. of periapsis
253.3762°
True anomaly
106.72708°
Mean anomaly
102.3445°
Eccentric anomaly
104.54093°
Mean motion
3.45462 °/min
Orbital period
104.21 mins
BSTAR
0.00083467
Loading maneuver chart data...
Computing Atmospheric mass density...

Documentation

Showing up to 5 results
|